Flag for Israel Weather past 2 weeks in Haifa, Israel

Now
84 °F

Passing clouds.


Feels Like: 94 °F
Forecast: 80 / 84 °F
Wind: 6 mph from West

Location: Sde-Haifa Haifa

Current Time: Aug 5, 2015 at 12:02:57 AM

Latest Report: Aug 4, 2015 at 9:50 PM


Visibility: N/A

Pressure: 29.74 "Hg

Humidity: 79%

Dew point: 77 °F

Location of HaifaLocation

Historic Weather in Haifa — Graph

°F

Haifa temperature yesterday

Maximum temperature yesterday: 93 °F (at 11:50 AM)
Minimum temperature yesterday: 82 °F (at 6:50 AM)
Average temperature yesterday: 88 °F

Past Weeks' High & Low Weather Summary

 TemperatureHumidityPressure
High93 °F (Aug 3, 11:50 AM)89% (Jul 30, 6:50 AM)29.80 "Hg (Jul 30, 6:50 AM)
Low73 °F (Jul 30, 6:50 AM)40% (Jul 24, 8:50 AM)29.68 "Hg (Jul 21, 6:50 AM)
Average85 °F68%29.73 "Hg
* Reported Jul 21 6:50 AM — Aug 4 9:50 PM, Haifa, Weather by CustomWeather, © 2015

Note: Actual official high and low records may vary slightly from our data, if they occured in-between our weather recording intervals... More about our weather records

Advertising

Haifa weather history for previous 24 hours

 ConditionsComfort  
Time TempWeatherWind HumidityBarometerVisibility
9:50 PM
Tue, Aug 4
84 °FPassing clouds.6 mph79%29.74 "HgN/A
8:50 PM84 °FPassing clouds.7 mph79%29.71 "HgN/A
7:50 PM84 °FPassing clouds.7 mph84%29.71 "HgN/A
6:50 PM86 °FPassing clouds.7 mph79%29.71 "HgN/A
5:50 PM86 °FPassing clouds.9 mph79%29.71 "HgN/A
4:50 PM88 °FPassing clouds.9 mph75%29.71 "HgN/A
3:50 PM88 °FPassing clouds.12 mph75%29.74 "HgN/A
2:50 PM90 °FPassing clouds.13 mph71%29.74 "HgN/A
1:50 PM91 °FPassing clouds.10 mph63%29.74 "HgN/A
12:50 PM93 °FPassing clouds.9 mph59%29.74 "HgN/A
11:50 AM93 °FPassing clouds.8 mph59%29.74 "HgN/A
10:50 AM90 °FPassing clouds.12 mph71%29.74 "HgN/A
9:50 AM91 °FClear.3 mph63%29.77 "Hg6 mi
8:50 AM88 °FClear.2 mph66%29.74 "Hg4 mi
7:50 AM84 °FPassing clouds.3 mph79%29.77 "Hg4 mi
6:50 AM82 °FPassing clouds.3 mph84%29.74 "Hg5 mi
Weather by CustomWeather, © 2015

See weather overviewHow to use our weather pages